Observations for Trim Market St
| Time | AQI | Temp °C | Hum % | Pres Pa | CO μg/m³ | H₂S μg/m³ | NO μg/m³ | NO₂ μg/m³ | O₃ μg/m³ | SO₂ μg/m³ | PM1 μg/m³ | PM2.5 μg/m³ | PM10 μg/m³ |
|---|---|---|---|---|---|---|---|---|---|---|---|---|---|
| Sunday 16 August 2026 | |||||||||||||
| 00:02 | 3 | 16.5 | 59 | 57,952 | 0.64 | 0 | 1.05 | 6.87 | 56.68 | 0 | 1.43 | 3.06 | 4.08 |
| 00:01 | 3 | 16.5 | 59 | 57,952 | 0.25 | 0 | 1.05 | 7.56 | 55.52 | 0 | 0.71 | 3.06 | 4.08 |
| 00:00 | 3 | 16.5 | 59 | 57,952 | 0.18 | 0 | 1.05 | 7.44 | 58.64 | 0 | 0.71 | 3.06 | 4.08 |
| Saturday 15 August 2026 | |||||||||||||
| 23:59 | 3 | 16.6 | 59 | 57,952 | 0.2 | 0 | 1.05 | 6.6 | 60.45 | 0 | 0.71 | 2.56 | 3.39 |
| 23:57 | 3 | 16.6 | 59 | 57,954 | 0.11 | 0 | 1.06 | 7.18 | 59.01 | 0 | 0 | 2.05 | 2.7 |
| 23:53 | 3 | 16.6 | 59 | 57,958 | 0.16 | 0 | 1.25 | 8.51 | 57.48 | 0 | 0.71 | 2.56 | 4.08 |
| 23:45 | 3 | 16.7 | 59 | 57,966 | 0.09 | 0 | 1.05 | 10.78 | 63.73 | 0 | 0.71 | 2.08 | 2.67 |
| 23:44 | 3 | 16.7 | 59 | 57,966 | 0.15 | 0 | 1.05 | 12.62 | 57.19 | 0 | 0.71 | 2.59 | 3.36 |
| 23:41 | 3 | 16.8 | 58 | 57,962 | 0.07 | 0 | 1.05 | 7.05 | 64.13 | 0 | 0 | 2.09 | 2.66 |
| 23:40 | 3 | 16.8 | 58 | 57,958 | 0.08 | 0 | 1.04 | 17.76 | 60.5 | 0 | 0 | 2.6 | 3.35 |
| 23:38 | 3 | 16.8 | 58 | 57,950 | 0.12 | 0 | 1.3 | 13.82 | 53.05 | 0 | 1.43 | 2.61 | 3.34 |
| 23:37 | 3 | 16.8 | 58 | 57,942 | 0.13 | 0 | 1.29 | 12.59 | 53.65 | 0 | 0.71 | 2.61 | 3.34 |
| 23:36 | 3 | 16.9 | 58 | 57,934 | 0.13 | 0 | 1.1 | 11.86 | 57 | 0 | 0 | 2.11 | 3.34 |
| 23:34 | 3 | 16.9 | 58 | 57,905 | 0.11 | 0 | 1.04 | 11.64 | 58.81 | 0 | 0 | 1.62 | 1.92 |
| 23:32 | 3 | 16.9 | 57 | 57,850 | 0.06 | 0 | 1.04 | 8.36 | 61.77 | 0 | 0.71 | 2.64 | 3.32 |
| 23:31 | 3 | 16.9 | 57 | 57,812 | 0.07 | 0 | 1.04 | 8.54 | 62.6 | 0 | 0.71 | 2.64 | 3.31 |
| 23:30 | 3 | 16.9 | 57 | 57,759 | 0.07 | 0 | 1.04 | 8.23 | 63.23 | 0 | 0 | 2.65 | 4.01 |
| 23:28 | 3 | 17 | 57 | 57,602 | 0.08 | 0 | 1.04 | 13.97 | 58.76 | 0 | 1.43 | 3.17 | 4.71 |
| 23:25 | 3 | 17 | 56 | 57,385 | 0.2 | 0 | 1.06 | 12.3 | 61.26 | 0 | 0 | 2.18 | 2.57 |
| 23:23 | 3 | 17.1 | 56 | 57,087 | 0.13 | 0 | 1.06 | 12.05 | 55.72 | 0 | 0 | 1.69 | 1.85 |